Location: A�t �Alizem
(31.2076°N, 8.7872°W)
Time: 23:02:22
(UTC+00:00)

deb Explorer IX - Pass Details

Date: 26 June 2021
Orbit: 542 x 1233 km, 38.9° (Epoch: 24 July)

Event Time Altitude Azimuth Distance (km) Brightness Sun altitude
Rises 03:51:26 0° 295° (WNW) 3,267 ? -18.5°
Reaches altitude 10° 03:53:42 10° 296° (WNW) 2,434 ? -18.1°
Maximum altitude 03:59:35 88° 23° (NNE) 958 ? -17.2°
Drops below altitude 10° 04:06:44 10° 116° (ESE) 2,928 ? -16.0°
Sets 04:09:41 0° 117° (ESE) 3,971 ? -15.6°
